User: anonymous   Login
Location: Unspecified
(0.0000°N, 0.0000°E)
Time: 00:08:23
(UTC+00:00)
Language:

SHIYUAN 3 (SY-3) - Orbit

View from above orbital plane
View from above orbital plane
View from above satellite
View from above satellite

Ground track
Ground track

The orbit data is extracted from the following two-line orbital elements,

1 33433U 08056A   18112.58146739 +.00000003 +00000-0 +18530-4 0  9995
2 33433 098.6590 105.9424 0012655 221.5405 138.4812 14.29691483493637
Epoch (UTC): 22 April 2018 13:57:18
Eccentricity: 0.0012655
inclination: 98.6590°
perigee height: 783 km
apogee height: 802 km
right ascension of ascending node: 105.9424°
argument of perigee: 221.5405°
revolutions per day: 14.29691483
mean anomaly at epoch: 138.4812°
orbit number at epoch: 49363

The dashed part of the orbit path shows where the satellite is in the earth's shadow,  

DLR